#timestamp,LO_Frequency,Hit 
1504008015.9,286046990.8,N
1504008035.7,286046987.3,N
1504008055.5,286046985.8,N
1504008075.4,286046984.2,N
1504008095.2,286046988.3,N
1504008115.0,286046989.6,N
1504008115.9,286046989.6,N
1504008135.8,286046986.4,P
1504008155.6,286046988.6,P
1504008175.4,286046987.5,P
1504008195.3,286046987.8,P
1504008215.1,286046998.7,P
1504008235.8,286046995.2,N
1504008255.7,286046994.5,N
1504008275.5,286046990.7,N
1504008295.3,286046991.3,N
1504008315.2,286046987.8,P
1504008335.0,286046990.6,P
1504008335.9,286046990.6,P
1504008355.8,286046993.2,P
1504008375.6,286047000.3,N
1504008395.4,286047001.2,N
1504008415.3,286046999.0,N
1504008435.1,286046997.3,N
1504008436.0,286046997.3,N
1504008455.8,286046995.1,N
1504008475.6,286046996.6,N
1504008495.5,286046994.9,N
1504008515.3,286046995.4,N
1504008535.1,286046995.9,N
1504008555.9,286046997.9,N
1504008575.7,286046999.2,N
1504008595.5,286046995.8,N
1504008615.4,286046996.6,N
1504008635.2,286046998.9,N
1504008655.0,286046998.0,N
1504008655.9,286046998.0,N
1504008675.8,286046995.4,N
1504008695.6,286046995.4,N
1504008715.4,286046994.0,N
1504008735.2,286046994.4,N
1504008755.1,286046995.2,N
1504008756.0,286046995.2,N
1504008775.8,286046993.5,N
1504008795.6,286046999.2,N
1504008815.5,286046998.4,N
1504008835.3,286046999.9,N
1504008855.1,286047001.0,N
1504008875.9,286047000.5,N
1504008895.7,286046999.7,N
1504008915.5,286047001.8,N
1504008935.4,286047003.8,N
1504008955.2,286047003.2,N
1504008975.0,286047004.4,N
1504008975.9,286047004.4,N
1504008995.8,286047004.3,N
1504009015.6,286047003.8,N
1504009035.4,286047002.2,N
1504009055.3,286046997.0,N
1504009075.1,286046999.0,N
1504009076.0,286046999.0,N
1504009095.8,286046998.8,N
1504009115.7,286046997.2,N
1504009135.5,286046995.3,N
1504009155.3,286046994.9,N
1504009175.2,286046997.9,N
1504009195.9,286046995.0,N
1504009215.7,286046996.0,N
1504009235.5,286046993.9,N
1504009255.4,286046996.0,N
1504009275.2,286046997.6,N
1504009295.0,286046995.2,N
1504009296.0,286046995.2,N
1504009315.8,286046993.3,N
1504009335.6,286046995.0,N
1504009355.4,286046993.7,N
1504009375.3,286046994.2,N
1504009395.1,286046994.4,N
1504009415.8,286046991.3,N
1504009435.7,286046987.0,P
1504009455.5,286046990.9,N
1504009475.3,286046990.9,N
1504009495.2,286046991.9,N
1504009515.0,286046992.8,N
1504009515.9,286046992.8,N
1504009535.8,286046990.2,P
1504009555.6,286046998.8,N
1504009575.4,286046994.9,N
1504009595.3,286046993.4,N
1504009615.1,286046996.3,N
1504009616.0,286046996.3,N
1504009635.8,286046992.6,N
1504009655.7,286046990.5,P
1504009675.5,286046997.8,N
1504009695.3,286046998.3,N
1504009715.2,286047004.3,N
1504009735.9,286047003.8,N
1504009755.7,286047006.8,N
1504009775.6,286047009.1,N
1504009795.4,286047008.4,N
1504009815.2,286047009.2,N
1504009835.0,286047009.9,N
1504009836.0,286047009.9,N
1504009855.8,286047009.8,N
1504009875.6,286047013.1,N
1504009895.4,286047014.3,N
1504009915.3,286047018.0,N
1504009935.1,286047017.5,N
1504009955.8,286047017.8,N
1504009975.7,286047019.5,N
1504009995.5,286047021.7,N
1504010015.3,286047020.5,N
1504010035.2,286047023.4,N
1504010055.9,286047020.6,N
1504010075.7,286047024.4,N
1504010095.6,286047024.3,N
1504010115.4,286047025.0,N
1504010135.2,286047021.9,N
1504010155.1,286047017.4,N
1504010156.0,286047017.4,N
1504010175.8,286047021.2,N
1504010195.6,286047018.3,N
1504010215.5,286047014.3,N
1504010235.3,286047009.0,N
1504010255.1,286047006.6,N
1504010275.8,286047007.1,N
1504010295.7,286047004.6,N
1504010315.5,286047002.2,N
1504010335.3,286047001.2,N
1504010355.2,286046993.4,N
1504010375.0,286046994.2,N
1504010375.9,286046994.2,N
1504010395.7,286046996.4,N
1504010415.6,286046998.1,N
1504010435.4,286046997.2,N
1504010455.2,286046997.6,N
1504010475.1,286046998.0,N
1504010476.0,286046998.0,N
1504010495.8,286046999.2,N
1504010515.6,286047000.1,N
1504010535.5,286047000.2,N
1504010555.3,286046999.1,N
1504010575.1,286046995.4,N
1504010595.9,286046996.4,N
1504010615.7,286046992.4,N
1504010635.5,286046991.9,N
1504010655.4,286046992.1,N
1504010675.2,286046996.1,N
1504010695.0,286046994.3,N
1504010695.9,286046994.3,N
1504010715.8,286046990.9,N
1504010735.6,286046989.5,N
1504010755.4,286046987.9,N
1504010775.3,286046987.7,N
1504010795.1,286046989.5,N
1504010796.0,286046989.5,N
1504010815.8,286046989.3,N
1504010835.6,286046991.4,N
1504010855.5,286046988.7,N
1504010875.3,286046987.4,P
1504010895.2,286046993.3,N
1504010915.9,286046993.1,N
1504010935.7,286046995.8,N
1504010955.5,286046995.3,N
1504010975.4,286046995.0,N
1504010995.2,286046995.5,N
1504011015.0,286046997.0,N
1504011015.9,286046997.0,N
1504011035.8,286047002.8,N
1504011055.6,286046999.5,N
1504011075.4,286046997.3,N
1504011095.3,286046996.9,N
1504011115.1,286046999.3,N
1504011135.8,286046996.9,N
1504011155.7,286046999.6,N
1504011175.5,286046997.0,N
1504011195.3,286047001.2,N
1504011215.2,286047000.7,N
1504011235.9,286046999.3,N
1504011255.7,286046998.2,N
1504011275.6,286046997.0,N
1504011295.4,286046998.5,N
1504011315.2,286046999.5,N
1504011335.1,286046998.5,N
1504011336.0,286046998.5,N
1504011355.8,286046996.6,N
1504011375.6,286046995.5,N
1504011395.5,286046996.1,N
1504011415.3,286046997.6,N
1504011435.1,286046997.1,N
1504011455.8,286046997.4,N
1504011475.7,286046999.0,N
1504011495.5,286046997.6,N
1504011515.4,286046993.4,P
1504011535.2,286046994.4,N
1504011555.0,286046994.8,N
1504011555.9,286046994.8,P
1504011575.8,286046994.2,P
1504011595.6,286046991.0,P
